Location: ???????
(55.3754°N, 39.3545°E)
Time: 10:09:47
(UTC+00:00)

Cosmos 1954 Rocket - Pass Details

Date: 14 April 2026
Orbit: 748 x 776 km, 74.0° (Epoch: 19 May)

Event Time Altitude Azimuth Distance (km) Brightness Sun altitude
Rises 21:14:27 0° 331° (NNW) 3,257 8.3 -24.9°
Reaches altitude 10° 21:16:51 10° 331° (NNW) 2,323 7.3 -25.0°
Maximum altitude 21:22:08 83° 245° (WSW) 778 3.9 -25.0°
Enters shadow 21:22:30 76° 185° (S) 793 3.8 -25.0°
